User: anonymous   Login
Location: Carnoy
(49.9849°N, 2.7558°E)
Time: 12:59:22
(UTC+00:00)
Language:

CZ-4 R/B - Orbit

View from above orbital plane
View from above orbital plane
View from above satellite
View from above satellite

Ground track
Ground track

The orbit data is extracted from the following two-line orbital elements,

1 28414U 04035B   20099.13851319  .00000392  00000-0  41922-4 0  9998
2 28414  97.7686 119.5117 0006280 181.0475 179.0733 14.94236510848433
Epoch (UTC): 08 April 2020 03:19:27
Eccentricity: 0.0006280
inclination: 97.7686°
perigee height: 580 km
apogee height: 589 km
right ascension of ascending node: 119.5117°
argument of perigee: 181.0475°
revolutions per day: 14.94236510
mean anomaly at epoch: 179.0733°
orbit number at epoch: 84843

The dashed part of the orbit path shows where the satellite is in the earth's shadow,  

DLR